[[{"header":{"parameterUnit":"m.s-1","parameterCategory":1,"la1":30.2991,"la2":30.254,"lo1":-89.0895,"lo2":-89.0444,"dy":0.0017,"dx":0.0017,"nx":28,"ny":28,"refTime":"2023-10-19T21:00:00:Z","depth":0,"parameterNumber":2,"parameterNumberName":"U-component_of_WINDS"},"data":[0,0,0,0,0,0,0,0,0,0,0,0,0,0,0,0,0,0,0,0,0,0,0,0,0,0,0,0,0,0,0,0,0,0,0,0,0,0,0,0,0,0,0,0,0,0,0,0,0,0,0,0,0,0,0,0,0,0,3.1295,3.1296,0,3.1359,3.136,3.136,3.124,3.1236,3.1232,3.1228,3.1299,3.1305,3.131,0,0,0,0,0,0,0,0,0,0,0,0,0,3.1075,3.108,3.1295,3.1296,3.1296,3.1359,3.136,3.1361,3.124,3.1236,3.1231,3.1226,3.1298,3.1304,3.1311,0,0,0,0,0,0,0,0,0,0,0,0,0,3.1158,3.1082,3.1295,3.1244,3.124,3.1359,3.136,3.1361,3.1241,3.1235,3.1229,3.1224,3.1295,3.1304,3.1312,3.1485,0,0,3.1338,3.1342,0,0,0,0,0,0,0,0,3.1154,3.1167,3.1251,3.1248,3.1243,3.1285,3.1308,3.1403,3.1243,3.1241,3.1228,3.1221,3.13,3.1308,3.1333,3.1488,3.1491,3.1339,3.1344,3.1347,3.135,0,0,0,0,0,0,0,3.1148,3.1163,3.132,3.1252,3.1248,3.122,3.1225,3.1326,3.1304,3.1241,3.1232,3.1241,3.1297,3.1325,3.1334,3.1492,3.1338,3.1346,3.1351,3.1354,3.1797,3.1803,0,0,0,0,0,0,3.1148,3.1159,3.1318,3.1322,3.1183,3.1229,3.1235,3.1278,3.1302,3.13,3.1246,3.1235,3.1314,3.1324,3.1336,3.1543,3.1347,3.1355,3.136,3.179,3.1798,3.1806,0,0,0,0,0,0,3.1144,3.1163,3.1316,3.1238,3.1256,3.1239,3.1289,3.1282,3.131,3.1306,3.1302,3.1279,3.1309,3.1324,3.1449,3.1543,3.1359,3.1367,3.1782,3.1793,3.1802,3.1956,0,0,0,0,0,0,3.1138,3.1162,3.1226,3.1241,3.126,3.1426,3.1294,3.1288,3.1325,3.1311,3.1336,3.1334,3.1306,3.1437,3.1458,3.1552,3.1373,3.1774,3.1787,3.1799,3.1943,3.197,3.1994,0,0,0,0,0,3.113,3.1268,3.123,3.125,3.1339,3.1432,3.1443,3.1406,3.1333,3.1398,3.1396,3.1333,3.1529,3.1451,3.1473,3.1571,3.1768,3.1783,3.1798,3.1931,3.1965,3.1993,0,0,0,0,0,0,3.1266,3.1269,3.1227,3.1372,3.1403,3.1411,3.1492,3.1442,3.1495,3.1481,3.1434,3.1441,3.1577,3.1586,3.1498,3.1742,3.1637,3.1657,3.1731,3.1763,3.1788,3.1784,3.138,0,0,0,0,0,3.1313,3.1385,3.1384,3.1513,3.153,3.1509,3.1548,3.1517,3.1547,3.156,3.1566,3.16,3.1669,3.1716,3.1779,3.1943,3.1949,3.2022,3.2047,3.2068,3.2087,3.2178,3.2211,3.1855,3.1855,3.1854,0,0,3.141,3.1421,3.147,3.1541,3.156,3.164,3.1521,3.1609,3.1668,3.1574,3.1693,3.1699,3.1734,3.188,3.1945,3.1892,3.2187,3.2088,3.2104,3.2112,3.2197,3.2231,3.2261,3.1865,3.1863,3.1862,0,0,3.1629,3.1643,3.1752,3.1775,3.1806,3.1791,3.1818,3.1835,3.1835,3.1953,3.1885,3.1956,3.2076,3.2104,3.2134,3.2366,3.2312,3.2388,3.2523,3.2612,3.264,3.2665,3.2751,3.2782,3.2407,3.2407,3.2407,0,3.1747,3.1861,3.1816,3.191,3.1944,3.1861,3.1974,3.1999,3.205,3.2078,3.2017,3.2167,3.2185,3.2338,3.2395,3.2421,3.2453,3.2386,3.2639,3.2664,3.2686,3.2768,3.28,3.2416,3.2415,3.2414,3.2413,0,3.2006,3.2087,3.2172,3.2223,3.2267,3.237,3.2343,3.2394,3.236,3.2353,3.2476,3.2494,3.2561,3.2595,3.2562,3.2745,3.2712,3.2646,3.254,3.273,3.2806,3.2837,3.243,3.2426,3.2423,3.2421,0,0,3.2312,3.2337,3.2369,3.2393,3.2422,3.2485,3.2585,3.2649,3.2695,3.2734,3.282,3.2924,3.2864,3.2899,3.2869,3.2947,3.3134,3.2872,3.2872,3.2923,3.334,3.3391,3.3427,3.3097,3.3103,3.3107,3.3338,0,3.2531,3.2702,3.2665,3.2835,3.2911,3.2834,3.2922,3.2952,3.2948,3.3014,3.3011,3.3086,3.3,3.3021,3.3095,3.3095,3.3217,3.3078,3.318,3.3184,3.3175,3.3466,3.352,3.3737,3.3367,3.3372,3.3376,0,3.2808,3.2857,3.3034,3.3054,3.3084,3.3164,3.3221,3.3284,3.3317,3.3309,3.3349,3.3305,3.3408,3.33,3.3443,3.335,3.3389,3.3396,3.3404,3.3413,3.3293,3.3487,3.3804,3.3838,3.3421,3.3418,3.3414,0,3.3018,3.3127,3.3248,3.327,3.3295,3.3353,3.3367,3.3393,3.3435,3.3486,3.3514,3.3577,3.3612,3.3663,3.3639,3.3561,3.3788,3.3677,3.3788,3.3789,3.384,3.3838,3.4171,3.3862,3.3862,3.3861,3.386,0,3.3267,3.3379,3.3342,3.3417,3.3541,3.35,3.3625,3.363,3.3655,3.3731,3.3668,3.3742,3.3704,3.3776,3.3757,3.3881,3.3897,3.3896,3.389,3.3903,3.3904,3.393,3.3915,3.387,3.3868,3.3866,3.3865,0,3.3522,3.3501,3.3628,3.3642,3.3648,3.374,3.3752,3.3824,3.3815,3.3913,3.3934,3.3923,3.4004,3.3984,3.4073,3.4061,3.4218,3.4192,3.4207,3.4201,3.4314,3.4305,3.4679,3.4727,3.4384,3.4387,3.439,0,3.3683,3.3768,3.3791,3.3837,3.3855,3.3929,3.3972,3.3935,3.3982,3.4028,3.4095,3.417,3.4229,3.4363,3.4365,3.4433,3.441,3.4536,3.442,3.4432,3.4416,3.4412,3.4422,3.456,3.4564,3.4567,3.457,0,3.3974,3.396,3.4022,3.4083,3.4135,3.4181,3.4221,3.4263,3.423,3.4287,3.4368,3.4414,3.4505,3.4583,3.4646,3.4663,3.4614,3.4606,3.4636,3.4651,3.4657,3.4659,3.4272,3.4598,3.4595,3.4593,3.4592,3.4591,3.4189,3.4261,3.4289,3.4362,3.4388,3.4428,3.4496,3.4497,3.4564,3.4634,3.4609,3.4704,3.4738,3.4818,3.4843,3.4919,3.4871,3.4914,3.4925,3.4937,3.4952,3.4644,3.493,3.4929,3.4928,3.4927,3.4927,0,3.4478,3.4492,3.456,3.4618,3.4676,3.4621,3.4664,3.4718,3.4801,3.4836,3.4895,3.4991,3.5066,3.5074,3.5146,3.5205,3.5184,3.5226,3.5222,3.5228,3.4989,3.4957,3.5241,3.5241,3.5241,3.5241,3.5241,3.5241,3.4636,3.4756,3.4747,3.4881,3.4895,3.4986,3.5016,3.5054,3.5081,3.5191,3.5253,3.5256,3.5282,3.5355,3.5423,3.5423,3.5454,3.5505,3.5498,3.5275,3.5244,3.5214,3.5184,3.5511,3.5512,3.573,3.5732,3.5734]},{"header":{"parameterUnit":"m.s-1","parameterCategory":1,"la1":30.2991,"la2":30.254,"lo1":-89.0895,"lo2":-89.0444,"dy":0.0017,"dx":0.0017,"nx":28,"ny":28,"refTime":"2023-10-19T21:00:00:Z","depth":0,"parameterNumber":3,"parameterNumberName":"V-component_of_WINDS"},"data":[0,0,0,0,0,0,0,0,0,0,0,0,0,0,0,0,0,0,0,0,0,0,0,0,0,0,0,0,0,0,0,0,0,0,0,0,0,0,0,0,0,0,0,0,0,0,0,0,0,0,0,0,0,0,0,0,0,0,-1.4646,-1.4647,0,-1.4698,-1.4698,-1.4699,-1.4738,-1.4739,-1.4739,-1.4739,-1.4789,-1.479,-1.4791,0,0,0,0,0,0,0,0,0,0,0,0,0,-1.458,-1.4581,-1.4646,-1.4647,-1.4648,-1.4698,-1.4698,-1.4699,-1.4738,-1.4739,-1.4739,-1.474,-1.4789,-1.479,-1.4791,0,0,0,0,0,0,0,0,0,0,0,0,0,-1.4617,-1.4581,-1.4646,-1.4673,-1.4676,-1.4697,-1.4698,-1.4699,-1.4738,-1.4739,-1.4739,-1.474,-1.4788,-1.479,-1.4791,-1.4789,0,0,-1.4796,-1.4796,0,0,0,0,0,0,0,0,-1.4615,-1.462,-1.4669,-1.4671,-1.4675,-1.4712,-1.4693,-1.4729,-1.4738,-1.4714,-1.4739,-1.474,-1.4763,-1.4767,-1.4775,-1.4791,-1.4793,-1.4796,-1.4797,-1.4797,-1.4798,0,0,0,0,0,0,0,-1.4612,-1.4618,-1.4667,-1.4669,-1.4673,-1.4682,-1.4688,-1.47,-1.4735,-1.4717,-1.472,-1.4725,-1.4765,-1.4773,-1.4776,-1.4794,-1.4796,-1.4797,-1.4798,-1.4799,-1.4811,-1.481,0,0,0,0,0,0,-1.4606,-1.4615,-1.4665,-1.4668,-1.4646,-1.4683,-1.4689,-1.47,-1.4735,-1.4741,-1.4725,-1.4727,-1.4771,-1.4775,-1.4778,-1.4777,-1.4797,-1.4799,-1.48,-1.4811,-1.4811,-1.481,0,0,0,0,0,0,-1.4604,-1.461,-1.4663,-1.4643,-1.465,-1.4683,-1.4694,-1.47,-1.4709,-1.4741,-1.4747,-1.4727,-1.4771,-1.4776,-1.4786,-1.478,-1.4799,-1.4801,-1.4812,-1.4811,-1.481,-1.4776,0,0,0,0,0,0,-1.4602,-1.4609,-1.4609,-1.4642,-1.4651,-1.467,-1.4694,-1.4701,-1.4712,-1.4715,-1.4745,-1.4751,-1.4772,-1.4784,-1.4788,-1.4782,-1.4802,-1.4813,-1.4812,-1.4811,-1.4777,-1.4774,-1.477,0,0,0,0,0,-1.46,-1.4597,-1.4609,-1.4615,-1.4652,-1.467,-1.4675,-1.47,-1.4711,-1.4711,-1.4731,-1.475,-1.478,-1.4784,-1.4789,-1.4784,-1.4813,-1.4812,-1.4811,-1.4779,-1.4774,-1.4771,0,0,0,0,0,0,-1.4561,-1.4602,-1.4616,-1.4624,-1.4643,-1.4677,-1.4677,-1.4695,-1.4711,-1.4713,-1.4744,-1.475,-1.4757,-1.4771,-1.4776,-1.4783,-1.4799,-1.4798,-1.4773,-1.4769,-1.4766,-1.4761,-1.4803,0,0,0,0,0,-1.4554,-1.4566,-1.4601,-1.4604,-1.4613,-1.4644,-1.4652,-1.4671,-1.4692,-1.47,-1.4721,-1.474,-1.4754,-1.4763,-1.4777,-1.478,-1.4787,-1.4779,-1.4775,-1.4772,-1.4771,-1.4773,-1.477,-1.4806,-1.4806,-1.4806,0,0,-1.4538,-1.4562,-1.4568,-1.4597,-1.4614,-1.4625,-1.465,-1.4661,-1.4669,-1.4701,-1.4712,-1.4728,-1.4752,-1.4758,-1.4762,-1.4771,-1.4763,-1.4771,-1.4768,-1.4769,-1.4772,-1.4768,-1.4765,-1.4805,-1.4805,-1.4806,0,0,-1.4515,-1.4535,-1.454,-1.4557,-1.4583,-1.4603,-1.4604,-1.4636,-1.4648,-1.466,-1.4684,-1.4694,-1.4717,-1.4733,-1.4743,-1.4727,-1.4744,-1.4731,-1.4712,-1.4714,-1.4711,-1.4708,-1.4701,-1.4699,-1.473,-1.473,-1.473,0,-1.4492,-1.4511,-1.454,-1.4549,-1.4561,-1.4592,-1.4596,-1.4611,-1.464,-1.4647,-1.4657,-1.4687,-1.4705,-1.4715,-1.4711,-1.4719,-1.4721,-1.4727,-1.4709,-1.4707,-1.4705,-1.4699,-1.4696,-1.4728,-1.4728,-1.4728,-1.4728,0,-1.4481,-1.4493,-1.4494,-1.4522,-1.4534,-1.4541,-1.457,-1.4579,-1.4596,-1.4615,-1.4626,-1.4649,-1.4668,-1.4672,-1.4689,-1.4685,-1.4689,-1.4703,-1.472,-1.4699,-1.4694,-1.4692,-1.4725,-1.4726,-1.4727,-1.4727,0,0,-1.4434,-1.4479,-1.4478,-1.4491,-1.4523,-1.4533,-1.4541,-1.4561,-1.4567,-1.4587,-1.4593,-1.4613,-1.4626,-1.4639,-1.4657,-1.4659,-1.4643,-1.4673,-1.4674,-1.4666,-1.4639,-1.4627,-1.4624,-1.4655,-1.4655,-1.4655,-1.4637,0,-1.4415,-1.4432,-1.4458,-1.4466,-1.4478,-1.4507,-1.4514,-1.4534,-1.4552,-1.4564,-1.4583,-1.4596,-1.4614,-1.4621,-1.4624,-1.4645,-1.4638,-1.4646,-1.4661,-1.4661,-1.4653,-1.4621,-1.4609,-1.4591,-1.4635,-1.4635,-1.4634,0,-1.4395,-1.4413,-1.4423,-1.4453,-1.4459,-1.4465,-1.4485,-1.4497,-1.4519,-1.4532,-1.4546,-1.4567,-1.4576,-1.4592,-1.4604,-1.4609,-1.4617,-1.4628,-1.4628,-1.4629,-1.4645,-1.4621,-1.4586,-1.4582,-1.4632,-1.4632,-1.4632,0,-1.4359,-1.4386,-1.4395,-1.4405,-1.4441,-1.4445,-1.446,-1.4483,-1.4493,-1.4511,-1.4518,-1.4536,-1.4546,-1.4559,-1.4584,-1.4593,-1.4593,-1.4611,-1.4603,-1.4602,-1.4601,-1.46,-1.4565,-1.4608,-1.4608,-1.4608,-1.4608,0,-1.4334,-1.4338,-1.4379,-1.4384,-1.439,-1.442,-1.4424,-1.4442,-1.4462,-1.4471,-1.4498,-1.4505,-1.4538,-1.4549,-1.4568,-1.4575,-1.458,-1.459,-1.4594,-1.4587,-1.4585,-1.4591,-1.4592,-1.4607,-1.4607,-1.4607,-1.4607,0,-1.4294,-1.4321,-1.4333,-1.4366,-1.4375,-1.4377,-1.4406,-1.4412,-1.4432,-1.4442,-1.4446,-1.4477,-1.4492,-1.4518,-1.454,-1.4553,-1.4555,-1.4564,-1.4548,-1.455,-1.4541,-1.4541,-1.4507,-1.4504,-1.4549,-1.4549,-1.4548,0,-1.4276,-1.428,-1.4314,-1.4322,-1.4336,-1.4349,-1.436,-1.439,-1.44,-1.4426,-1.4429,-1.4445,-1.446,-1.4482,-1.4505,-1.4522,-1.4531,-1.4518,-1.4534,-1.4525,-1.453,-1.4528,-1.4529,-1.4514,-1.4514,-1.4513,-1.4513,0,-1.424,-1.4254,-1.4269,-1.4288,-1.4301,-1.4318,-1.4336,-1.4341,-1.4375,-1.4384,-1.44,-1.4411,-1.4434,-1.445,-1.447,-1.4485,-1.4504,-1.4508,-1.4507,-1.4498,-1.4487,-1.4492,-1.4537,-1.4508,-1.4509,-1.4509,-1.4509,-1.4509,-1.421,-1.4214,-1.4239,-1.4255,-1.4272,-1.4288,-1.4295,-1.4317,-1.433,-1.4352,-1.4368,-1.4382,-1.4405,-1.4434,-1.4448,-1.4458,-1.4467,-1.4466,-1.4465,-1.4464,-1.446,-1.4487,-1.4462,-1.4462,-1.4463,-1.4463,-1.4463,0,-1.4175,-1.4192,-1.4207,-1.4231,-1.4244,-1.4262,-1.4283,-1.4292,-1.4304,-1.4324,-1.4338,-1.4355,-1.4371,-1.4397,-1.4414,-1.4418,-1.4427,-1.4421,-1.442,-1.4423,-1.4452,-1.4451,-1.4413,-1.4413,-1.4413,-1.4413,-1.4413,-1.4413,-1.4158,-1.4166,-1.4183,-1.42,-1.4218,-1.4232,-1.4242,-1.4257,-1.4273,-1.4292,-1.4305,-1.4322,-1.4344,-1.4364,-1.4378,-1.4386,-1.439,-1.4381,-1.4391,-1.4417,-1.4421,-1.4426,-1.4425,-1.4382,-1.4382,-1.4361,-1.4361,-1.4361]}]]